Location: Buckhorn Peak
(37.6641°N, 120.1241°W)
Time: 22:16:59
(UTC+00:00)

Cosmos 2150 Rocket - Pass Details

Date: 05 August 2024
Orbit: 747 x 805 km, 74.0° (Epoch: 08 September)

Event Time Altitude Azimuth Distance (km) Brightness Sun altitude
Rises 12:19:40 0° 339° (NNW) 3,284 7.4 -9.5°
Reaches altitude 10° 12:22:06 10° 337° (NNW) 2,342 6.6 -9.1°
Maximum altitude 12:27:23 70° 255° (WSW) 822 4.0 -8.1°
Drops below altitude 10° 12:32:33 10° 172° (S) 2,289 6.3 -7.2°
Sets 12:34:53 0° 170° (S) 3,202 7.0 -6.8°
